Time,TemperatureF,DewpointF,PressureIn,WindDirection,WindDirectionDegrees,WindSpeedMPH,WindSpeedGustMPH,Humidity,HourlyPrecipIn,Conditions,Clouds,dailyrainin,SolarRadiationWatts/m^2,SoftwareType,DateUTC
2013-02-27 00:10:00,32.7,27.0,30.11,NNE,28,0.0,6.0,79,0.00,,,0.00,0,weatherlink.com 1.10,2013-02-27 05:10:00,
2013-02-27 00:25:00,32.8,27.0,30.12,NE,56,0.0,8.0,79,0.00,,,0.00,0,weatherlink.com 1.10,2013-02-27 05:25:00,
2013-02-27 00:41:00,32.8,27.0,30.11,ENE,62,0.0,11.0,79,0.00,,,0.00,0,weatherlink.com 1.10,2013-02-27 05:41:00,
2013-02-27 00:56:00,32.9,27.0,30.10,East,85,0.0,11.0,80,0.00,,,0.00,0,weatherlink.com 1.10,2013-02-27 05:56:00,
2013-02-27 01:11:00,33.1,28.0,30.09,ENE,66,4.0,13.0,80,0.00,,,0.00,0,weatherlink.com 1.10,2013-02-27 06:11:00,
2013-02-27 01:26:00,33.1,28.0,30.09,NE,51,0.0,10.0,80,0.00,,,0.00,0,weatherlink.com 1.10,2013-02-27 06:26:00,
2013-02-27 01:40:00,33.2,28.0,30.08,NE,39,5.0,12.0,80,0.00,,,0.00,0,weatherlink.com 1.10,2013-02-27 06:40:00,
2013-02-27 01:56:00,33.1,28.0,30.06,NE,53,0.0,9.0,80,0.00,,,0.00,0,weatherlink.com 1.10,2013-02-27 06:56:00,
2013-02-27 02:11:00,32.9,28.0,30.06,East,86,1.0,9.0,81,0.00,,,0.00,0,weatherlink.com 1.10,2013-02-27 07:11:00,
2013-02-27 02:26:00,33.1,28.0,30.05,ENE,78,9.0,12.0,81,0.00,,,0.00,0,weatherlink.com 1.10,2013-02-27 07:26:00,
2013-02-27 02:41:00,33.2,28.0,30.04,ENE,70,0.0,10.0,80,0.00,,,0.00,0,weatherlink.com 1.10,2013-02-27 07:41:00,
2013-02-27 02:56:00,33.4,28.0,30.05,SE,146,2.0,13.0,80,0.00,,,0.00,0,weatherlink.com 1.10,2013-02-27 07:56:00,
2013-02-27 03:11:00,33.5,28.0,30.05,ENE,71,3.0,12.0,80,0.00,,,0.00,0,weatherlink.com 1.10,2013-02-27 08:11:00,
2013-02-27 03:26:00,33.7,28.0,30.05,NE,34,0.0,10.0,81,0.00,,,0.00,0,weatherlink.com 1.10,2013-02-27 08:26:00,
2013-02-27 03:41:00,33.4,29.0,30.05,North,5,0.0,6.0,84,0.00,,,0.00,0,weatherlink.com 1.10,2013-02-27 08:41:00,
2013-02-27 03:56:00,33.1,29.0,30.05,North,355,0.0,7.0,86,0.00,,,0.00,0,weatherlink.com 1.10,2013-02-27 08:56:00,
2013-02-27 04:11:00,32.7,30.0,30.04,NNE,32,3.0,8.0,88,0.01,,,0.01,0,weatherlink.com 1.10,2013-02-27 09:11:00,
2013-02-27 04:26:00,32.4,30.0,30.01,WNW,300,3.0,8.0,89,0.02,,,0.02,0,weatherlink.com 1.10,2013-02-27 09:26:00,
2013-02-27 04:41:00,32.2,30.0,30.02,NNE,32,3.0,9.0,90,0.04,,,0.04,0,weatherlink.com 1.10,2013-02-27 09:41:00,
2013-02-27 04:56:00,32.2,30.0,30.01,ENE,65,0.0,10.0,92,0.05,,,0.05,0,weatherlink.com 1.10,2013-02-27 09:56:00,
2013-02-27 05:11:00,32.1,30.0,30.01,NNE,19,0.0,8.0,92,0.05,,,0.06,0,weatherlink.com 1.10,2013-02-27 10:11:00,
2013-02-27 05:26:00,32.1,30.0,30.00,ENE,78,2.0,6.0,93,0.06,,,0.08,0,weatherlink.com 1.10,2013-02-27 10:26:00,
2013-02-27 05:41:00,32.2,30.0,29.99,NE,47,5.0,8.0,93,0.06,,,0.10,0,weatherlink.com 1.10,2013-02-27 10:41:00,
2013-02-27 06:11:00,32.4,31.0,29.98,ESE,119,4.0,9.0,94,0.06,,,0.12,0,weatherlink.com 1.10,2013-02-27 11:11:00,
2013-02-27 06:26:00,32.5,31.0,29.96,NE,55,5.0,12.0,94,0.06,,,0.14,0,weatherlink.com 1.10,2013-02-27 11:26:00,
2013-02-27 06:41:00,32.5,31.0,29.96,East,88,6.0,9.0,94,0.05,,,0.15,0,weatherlink.com 1.10,2013-02-27 11:41:00,
2013-02-27 06:56:00,32.7,32.0,29.96,East,86,4.0,10.0,95,0.05,,,0.16,0,weatherlink.com 1.10,2013-02-27 11:56:00,
2013-02-27 07:12:00,32.7,32.0,29.95,North,355,4.0,9.0,95,0.06,,,0.18,0,weatherlink.com 1.10,2013-02-27 12:12:00,
2013-02-27 07:27:00,32.8,32.0,29.93,NNE,27,6.0,9.0,95,0.04,,,0.18,5,weatherlink.com 1.10,2013-02-27 12:27:00,
2013-02-27 07:42:00,32.9,32.0,29.93,NNE,15,6.0,13.0,95,0.04,,,0.20,14,weatherlink.com 1.10,2013-02-27 12:42:00,
2013-02-27 07:57:00,33.1,32.0,29.92,East,97,5.0,21.0,95,0.05,,,0.21,9,weatherlink.com 1.10,2013-02-27 12:57:00,
2013-02-27 08:12:00,33.2,32.0,29.91,NE,40,7.0,13.0,96,0.03,,,0.21,11,weatherlink.com 1.10,2013-02-27 13:12:00,
2013-02-27 08:27:00,33.4,32.0,29.91,NNW,348,0.0,14.0,96,0.04,,,0.22,16,weatherlink.com 1.10,2013-02-27 13:27:00,
2013-02-27 08:42:00,33.5,33.0,29.90,NE,38,4.0,13.0,96,0.04,,,0.24,9,weatherlink.com 1.10,2013-02-27 13:42:00,
2013-02-27 08:57:00,33.5,33.0,29.89,ESE,115,6.0,12.0,96,0.04,,,0.25,16,weatherlink.com 1.10,2013-02-27 13:57:00,
2013-02-27 09:12:00,34.0,33.0,29.88,ENE,66,0.0,13.0,96,0.05,,,0.26,7,weatherlink.com 1.10,2013-02-27 14:12:00,
2013-02-27 09:27:00,34.3,33.0,29.87,NE,53,14.0,14.0,96,0.04,,,0.26,12,weatherlink.com 1.10,2013-02-27 14:27:00,
2013-02-27 09:42:00,34.7,34.0,29.85,East,85,4.0,15.0,96,0.06,,,0.30,19,weatherlink.com 1.10,2013-02-27 14:42:00,
2013-02-27 09:57:00,35.2,34.0,29.85,East,86,8.0,13.0,96,0.08,,,0.34,25,weatherlink.com 1.10,2013-02-27 14:57:00,
2013-02-27 10:12:00,35.3,34.0,29.84,NE,49,0.0,19.0,96,0.11,,,0.37,37,weatherlink.com 1.10,2013-02-27 15:12:00,
2013-02-27 10:27:00,35.6,35.0,29.83,SE,137,4.0,15.0,96,0.12,,,0.39,83,weatherlink.com 1.10,2013-02-27 15:27:00,
2013-02-27 10:42:00,36.2,35.0,29.82,SE,142,6.0,16.0,96,0.11,,,0.41,97,weatherlink.com 1.10,2013-02-27 15:42:00,
2013-02-27 10:57:00,36.6,36.0,29.82,SE,127,7.0,18.0,96,0.09,,,0.43,91,weatherlink.com 1.10,2013-02-27 15:57:00,
2013-02-27 11:12:00,37.0,36.0,29.80,NNW,333,4.0,22.0,96,0.07,,,0.44,93,weatherlink.com 1.10,2013-02-27 16:12:00,
2013-02-27 11:27:00,37.5,37.0,29.80,ESE,107,8.0,19.0,96,0.07,,,0.46,97,weatherlink.com 1.10,2013-02-27 16:27:00,
2013-02-27 11:42:00,37.6,36.0,29.79,NE,53,7.0,19.0,95,0.07,,,0.48,91,weatherlink.com 1.10,2013-02-27 16:42:00,
2013-02-27 11:57:00,37.6,36.0,29.77,SE,133,5.0,14.0,95,0.07,,,0.50,95,weatherlink.com 1.10,2013-02-27 16:57:00,
2013-02-27 12:12:00,37.6,36.0,29.77,East,87,11.0,19.0,94,0.08,,,0.52,79,weatherlink.com 1.10,2013-02-27 17:12:00,
2013-02-27 12:27:00,37.5,36.0,29.76,East,89,6.0,21.0,94,0.08,,,0.54,90,weatherlink.com 1.10,2013-02-27 17:27:00,
2013-02-27 12:42:00,37.5,36.0,29.75,ENE,76,8.0,13.0,94,0.08,,,0.56,70,weatherlink.com 1.10,2013-02-27 17:42:00,
2013-02-27 12:57:00,37.2,35.0,29.75,NNE,32,5.0,15.0,93,0.08,,,0.58,67,weatherlink.com 1.10,2013-02-27 17:57:00,
2013-02-27 13:12:00,36.9,35.0,29.74,ESE,109,14.0,15.0,93,0.10,,,0.62,97,weatherlink.com 1.10,2013-02-27 18:12:00,
2013-02-27 13:27:00,36.5,34.0,29.74,North,355,5.0,19.0,92,0.10,,,0.64,58,weatherlink.com 1.10,2013-02-27 18:27:00,
2013-02-27 13:42:00,36.0,34.0,29.73,ENE,60,8.0,18.0,92,0.10,,,0.66,72,weatherlink.com 1.10,2013-02-27 18:42:00,
2013-02-27 13:57:00,35.6,34.0,29.73,ESE,102,1.0,18.0,92,0.10,,,0.68,90,weatherlink.com 1.10,2013-02-27 18:57:00,
2013-02-27 14:12:00,35.2,33.0,29.74,East,84,0.0,13.0,92,0.10,,,0.72,84,weatherlink.com 1.10,2013-02-27 19:12:00,
2013-02-27 14:27:00,34.9,33.0,29.74,ESE,106,8.0,15.0,91,0.10,,,0.74,60,weatherlink.com 1.10,2013-02-27 19:27:00,
2013-02-27 14:42:00,34.4,32.0,29.73,ENE,57,6.0,13.0,91,0.09,,,0.75,30,weatherlink.com 1.10,2013-02-27 19:42:00,
2013-02-27 14:57:00,34.0,32.0,29.73,ENE,68,6.0,9.0,92,0.09,,,0.77,44,weatherlink.com 1.10,2013-02-27 19:57:00,
2013-02-27 15:12:00,33.7,32.0,29.73,ENE,71,0.0,20.0,92,0.06,,,0.78,46,weatherlink.com 1.10,2013-02-27 20:12:00,
2013-02-27 15:27:00,33.5,32.0,29.73,NE,49,5.0,13.0,92,0.06,,,0.80,51,weatherlink.com 1.10,2013-02-27 20:27:00,
2013-02-27 15:42:00,33.4,31.0,29.71,ENE,57,7.0,15.0,92,0.07,,,0.82,30,weatherlink.com 1.10,2013-02-27 20:42:00,
2013-02-27 15:57:00,33.1,31.0,29.70,ENE,65,8.0,11.0,93,0.05,,,0.82,26,weatherlink.com 1.10,2013-02-27 20:57:00,
2013-02-27 16:12:00,32.9,31.0,29.70,NW,316,2.0,12.0,93,0.06,,,0.84,19,weatherlink.com 1.10,2013-02-27 21:12:00,
2013-02-27 16:27:00,32.8,31.0,29.69,NNE,18,0.0,12.0,94,0.06,,,0.86,11,weatherlink.com 1.10,2013-02-27 21:27:00,
2013-02-27 16:42:00,32.7,31.0,29.69,North,5,3.0,12.0,94,0.05,,,0.87,9,weatherlink.com 1.10,2013-02-27 21:42:00,
2013-02-27 16:57:00,32.7,31.0,29.68,NE,53,1.0,12.0,94,0.07,,,0.89,7,weatherlink.com 1.10,2013-02-27 21:57:00,
2013-02-27 17:12:00,32.5,31.0,29.68,NE,50,0.0,11.0,95,0.08,,,0.92,0,weatherlink.com 1.10,2013-02-27 22:12:00,
2013-02-27 17:27:00,32.5,31.0,29.68,ENE,73,5.0,10.0,95,0.08,,,0.94,0,weatherlink.com 1.10,2013-02-27 22:27:00,
2013-02-27 17:42:00,32.4,31.0,29.68,NNE,24,0.0,12.0,95,0.08,,,0.95,0,weatherlink.com 1.10,2013-02-27 22:42:00,
2013-02-27 17:57:00,32.4,31.0,29.68,ENE,57,8.0,9.0,95,0.07,,,0.96,0,weatherlink.com 1.10,2013-02-27 22:57:00,
2013-02-27 18:13:00,32.4,31.0,29.67,NE,54,6.0,13.0,95,0.06,,,0.98,0,weatherlink.com 1.10,2013-02-27 23:13:00,
2013-02-27 18:28:00,32.4,31.0,29.67,NE,35,2.0,13.0,96,0.05,,,0.99,0,weatherlink.com 1.10,2013-02-27 23:28:00,
2013-02-27 18:43:00,32.2,31.0,29.66,NE,49,0.0,13.0,96,0.05,,,1.00,0,weatherlink.com 1.10,2013-02-27 23:43:00,
2013-02-27 18:58:00,32.2,31.0,29.66,NNW,327,5.0,8.0,96,0.06,,,1.02,0,weatherlink.com 1.10,2013-02-27 23:58:00,
2013-02-27 19:13:00,32.1,31.0,29.65,North,355,6.0,11.0,96,0.05,,,1.03,0,weatherlink.com 1.10,2013-02-28 00:13:00,
2013-02-27 19:28:00,32.1,31.0,29.63,NE,38,4.0,13.0,96,0.06,,,1.05,0,weatherlink.com 1.10,2013-02-28 00:28:00,
2013-02-27 19:43:00,31.9,31.0,29.62,ENE,65,6.0,13.0,96,0.06,,,1.06,0,weatherlink.com 1.10,2013-02-28 00:43:00,
2013-02-27 19:58:00,31.9,31.0,29.62,NW,320,4.0,15.0,96,0.05,,,1.07,0,weatherlink.com 1.10,2013-02-28 00:58:00,
2013-02-27 20:13:00,31.9,31.0,29.62,NNE,32,4.0,15.0,96,0.05,,,1.08,0,weatherlink.com 1.10,2013-02-28 01:13:00,
2013-02-27 20:28:00,31.9,31.0,29.62,NE,38,5.0,12.0,96,0.03,,,1.08,0,weatherlink.com 1.10,2013-02-28 01:28:00,
2013-02-27 20:43:00,31.9,31.0,29.62,North,5,5.0,11.0,96,0.03,,,1.09,0,weatherlink.com 1.10,2013-02-28 01:43:00,
2013-02-27 20:58:00,31.9,31.0,29.62,North,5,1.0,7.0,96,0.03,,,1.10,0,weatherlink.com 1.10,2013-02-28 01:58:00,
2013-02-27 21:13:00,31.9,31.0,29.60,NNE,16,4.0,7.0,96,0.04,,,1.12,0,weatherlink.com 1.10,2013-02-28 02:13:00,
2013-02-27 21:28:00,32.1,31.0,29.60,North,-999,0.0,11.0,96,0.05,,,1.13,0,weatherlink.com 1.10,2013-02-28 02:28:00,
2013-02-27 21:43:00,32.1,31.0,29.60,North,-999,0.0,10.0,96,0.05,,,1.14,0,weatherlink.com 1.10,2013-02-28 02:43:00,
2013-02-27 21:58:00,31.9,31.0,29.58,NNW,336,4.0,6.0,96,0.05,,,1.15,0,weatherlink.com 1.10,2013-02-28 02:58:00,
2013-02-27 22:13:00,31.9,31.0,29.57,North,11,5.0,8.0,96,0.04,,,1.16,0,weatherlink.com 1.10,2013-02-28 03:13:00,
2013-02-27 22:29:00,31.9,31.0,29.57,NNW,327,5.0,9.0,96,0.03,,,1.16,0,weatherlink.com 1.10,2013-02-28 03:29:00,
2013-02-27 22:43:00,31.9,31.0,29.57,NNW,341,5.0,11.0,96,0.03,,,1.17,0,weatherlink.com 1.10,2013-02-28 03:43:00,
2013-02-27 22:58:00,31.9,31.0,29.57,NNW,329,2.0,10.0,96,0.02,,,1.17,0,weatherlink.com 1.10,2013-02-28 03:58:00,
2013-02-27 23:28:00,31.8,31.0,29.56,NNW,332,6.0,7.0,96,0.02,,,1.18,0,weatherlink.com 1.10,2013-02-28 04:28:00,
2013-02-27 23:43:00,31.6,31.0,29.56,NNW,329,5.0,8.0,97,0.01,,,1.18,0,weatherlink.com 1.10,2013-02-28 04:43:00,